AirNav   ProFlight Series 2 Aviation Headset
 
 1459 users online  

69FA LZ Shadow Heliport
Brooksville, Florida, USA

GOING TO BROOKSVILLE?


FAA INFORMATION EFFECTIVE 16 JULY 2020

Location

FAA Identifier: 69FA
Lat/Long: 28-33-18.9400N 082-20-04.7400W
28-33.315667N 082-20.079000W
28.5552611,-82.3346500
(estimated)
Elevation: 90 ft. / 27 m (estimated)
From city: 3 miles E of BROOKSVILLE, FL
Time zone: UTC -4 (UTC -5 during Standard Time)
Zip code: 34601

Heliport Operations

Heliport use: Private use. Permission required prior to landing
Activation date: 10/2017
Control tower: no
ARTCC: JACKSONVILLE CENTER
FSS: SAINT PETERSBURG FLIGHT SERVICE STATION
Attendance: 
Wind indicator: yes
Segmented circle: no

Heliport Communications

WX ASOS at BKV (8 nm SW): 134.725 (352-799-5881)
WX AWOS-3 at INF (15 nm N): 119.975 (352-560-6012)

Nearby radio navigation aids

VOR radial/distance  VOR name  Freq  Var
OCFr189/37.8OCALA VORTAC113.7000E
LALr333/38.1LAKELAND VORTAC116.0001E

Heliport Services

Runway Information

Helipad H1

Dimensions: 100 x 100 ft. / 30 x 30 m
Surface: turf, in good condition
Latitude: 28-33.315667N
Longitude: 082-20.079000W
Elevation: 90.0 ft.
Traffic pattern: leftleft

Heliport Ownership and Management from official FAA records

Ownership: Privately-owned
Owner: JOHN P SILBERMAN
24269 MONDON HILL RD
BROOKSVILLE, FL 34601
Phone 352-316-6463
Manager: STACY K GANDY
24265 MONDON HILL RD
BROOKSVILLE, FL 34601
Phone 352-584-6822

Additional Remarks

FOR CD CTC TAMPA APCH AT 813-878-2528.

Instrument Procedures

There are no published instrument procedures at 69FA.

Some nearby airports with instrument procedures:

KBKV - Brooksville-Tampa Bay Regional Airport (8 nm SW)
KINF - Inverness Airport (15 nm N)
KZPH - Zephyrhills Municipal Airport (22 nm SE)
KCGC - Crystal River Airport-Captain Tom Davis Field (23 nm NW)
X35 - Marion County Airport (30 nm N)
 
Loc | Ops | Rwys | IFR | FBO | Links
Com | Nav | Svcs | Stats | Notes
Aerial photo
No photo
 
Airport distance calculator
Flying to LZ Shadow Heliport? Find the distance to fly.

From to 69FA

Sunrise and sunset
Times for 07-Aug-2020
 Local
(UTC-4)
 Zulu
(UTC)
Morning civil twilight06:3110:31
Sunrise06:5610:56
Sunset20:1400:14
Evening civil twilight20:3900:39

Current date and time
Zulu (UTC)  07-Aug-2020 17:12:31
Local (UTC-4)  07-Aug-2020 13:12:31
 
METAR
KBKV 
8nm SW 
071653Z 23004KT 10SM -RA FEW039 SCT050 BKN065 32/24 A3010 RMK AO2 RAB40 SLP192 P0000 T03220244
KINF 
15nm N 
071655Z AUTO 28003KT 7SM SCT036 BKN045 OVC070 30/28 A3011 RMK AO2 LTG DSNT NW
TAF
KLEE 
31nm NE 
071143Z 0712/0812 VRB03KT P6SM FEW025 SCT180 FM071400 VRB04KT P6SM SCT035 SCT250 FM071900 24007KT P6SM VCTS SCT045CB SCT060 TEMPO 0721/0723 3SM TSRA BKN035CB FM080100 18004KT P6SM SCT050 BKN250
KTPA 
37nm S 
071500Z 0715/0818 25006KT P6SM VCTS SCT030CB BKN250 FM072100 28007KT P6SM SCT035 SCT130 BKN250 FM080100 VRB03KT P6SM FEW030 SCT250 FM081600 28006KT P6SM SCT030 SCT250
KLAL 
39nm SE 
071125Z 0712/0812 VRB03KT P6SM SCT025 SCT250 FM071700 29005KT P6SM VCTS BKN035CB FM080100 VRB03KT P6SM SCT030 SCT130 BKN250
NOTAMs
Click for the latest NOTAMs
NOTAMs are issued by the DoD/FAA and will open in a separate window not controlled by AirNav.

 

 
 

Would you like to see your business listed on this page?

 If your business provides an interesting product or service to pilots, flight crews, aircraft, or users of the LZ Shadow Heliport, you should consider listing it here.  To start the listing process, click on the button below
 
Add a business
 

Other Pages about LZ Shadow Heliport

Update a link
 
Copyright © AirNav, LLC. All rights reserved. Privacy Policy  Contact